owner,sensor,date,latitude,longitude,mass_concentration_of_chlorophyll_in_sea_water,qcFlag 
SCCF RECON,ioos:station:SCCF:16:1,2010-04-06T17:00:00Z,26.4345,-81.9647,0.54,1111122 
SCCF RECON,ioos:station:SCCF:16:1,2010-04-06T18:00:00Z,26.4345,-81.9647,0.6,1111122 
SCCF RECON,ioos:station:SCCF:16:1,2010-04-06T19:00:00Z,26.4345,-81.9647,0.58,1111122 
SCCF RECON,ioos:station:SCCF:16:1,2010-04-06T20:00:00Z,26.4345,-81.9647,0.63,1111122 
SCCF RECON,ioos:station:SCCF:16:1,2010-04-06T21:00:00Z,26.4345,-81.9647,0.64,1111122 
SCCF RECON,ioos:station:SCCF:16:1,2010-04-06T22:00:00Z,26.4345,-81.9647,0.72,1111122 
SCCF RECON,ioos:station:SCCF:16:1,2010-04-06T23:00:00Z,26.4345,-81.9647,0.69,1111122 
SCCF RECON,ioos:station:SCCF:16:1,2010-04-07T00:00:00Z,26.4345,-81.9647,0.63,1111122 
SCCF RECON,ioos:station:SCCF:16:1,2010-04-07T01:00:00Z,26.4345,-81.9647,0.63,1111122 
SCCF RECON,ioos:station:SCCF:16:1,2010-04-07T02:00:00Z,26.4345,-81.9647,0.63,1111122 
SCCF RECON,ioos:station:SCCF:16:1,2010-04-07T03:00:00Z,26.4345,-81.9647,0.69,1111122 
SCCF RECON,ioos:station:SCCF:16:1,2010-04-07T04:00:00Z,26.4345,-81.9647,0.7,1111122 
SCCF RECON,ioos:station:SCCF:16:1,2010-04-07T05:00:00Z,26.4345,-81.9647,0.65,1111122 
SCCF RECON,ioos:station:SCCF:16:1,2010-04-07T06:00:00Z,26.4345,-81.9647,0.72,1111122 
SCCF RECON,ioos:station:SCCF:16:1,2010-04-07T07:00:00Z,26.4345,-81.9647,0.81,1111122 
SCCF RECON,ioos:station:SCCF:16:1,2010-04-07T08:00:00Z,26.4345,-81.9647,1.05,1111122 
SCCF RECON,ioos:station:SCCF:16:1,2010-04-07T09:00:00Z,26.4345,-81.9647,1.0,1111122 
SCCF RECON,ioos:station:SCCF:16:1,2010-04-07T10:00:00Z,26.4345,-81.9647,0.77,1111122 
SCCF RECON,ioos:station:SCCF:16:1,2010-04-07T11:00:00Z,26.4345,-81.9647,0.78,1111122 
SCCF RECON,ioos:station:SCCF:16:1,2010-04-07T12:00:00Z,26.4345,-81.9647,0.96,1111122 
SCCF RECON,ioos:station:SCCF:16:1,2010-04-07T13:00:00Z,26.4345,-81.9647,1.04,1111122 
SCCF RECON,ioos:station:SCCF:16:1,2010-04-07T14:00:00Z,26.4345,-81.9647,0.87,1111122 
SCCF RECON,ioos:station:SCCF:16:1,2010-04-07T15:00:00Z,26.4345,-81.9647,0.67,1111122 
SCCF RECON,ioos:station:SCCF:16:1,2010-04-07T16:00:00Z,26.4345,-81.9647,0.72,1111122 
SCCF RECON,ioos:station:SCCF:16:1,2010-04-07T17:00:00Z,26.4345,-81.9647,0.53,1111122 
SCCF RECON,ioos:station:SCCF:16:1,2010-04-07T18:00:00Z,26.4345,-81.9647,0.66,1111122 
SCCF RECON,ioos:station:SCCF:16:1,2010-04-07T19:00:00Z,26.4345,-81.9647,0.72,1111122 
SCCF RECON,ioos:station:SCCF:16:1,2010-04-07T20:00:00Z,26.4345,-81.9647,0.54,1111122 
SCCF RECON,ioos:station:SCCF:16:1,2010-04-07T21:00:00Z,26.4345,-81.9647,0.67,1111122 
SCCF RECON,ioos:station:SCCF:16:1,2010-04-07T22:00:00Z,26.4345,-81.9647,0.7,1111122 
SCCF RECON,ioos:station:SCCF:16:1,2010-04-07T23:00:00Z,26.4345,-81.9647,0.59,1111122 
SCCF RECON,ioos:station:SCCF:16:1,2010-04-08T00:00:00Z,26.4345,-81.9647,0.6,1111122 
SCCF RECON,ioos:station:SCCF:16:1,2010-04-08T01:00:00Z,26.4345,-81.9647,0.6,1111122 
SCCF RECON,ioos:station:SCCF:16:1,2010-04-08T02:00:00Z,26.4345,-81.9647,0.59,1111122 
SCCF RECON,ioos:station:SCCF:16:1,2010-04-08T03:00:00Z,26.4345,-81.9647,0.57,1111122 
SCCF RECON,ioos:station:SCCF:16:1,2010-04-08T04:00:00Z,26.4345,-81.9647,0.62,1111122 
SCCF RECON,ioos:station:SCCF:16:1,2010-04-08T05:00:00Z,26.4345,-81.9647,0.57,1111122 
SCCF RECON,ioos:station:SCCF:16:1,2010-04-08T06:00:00Z,26.4345,-81.9647,0.57,1111122 
SCCF RECON,ioos:station:SCCF:16:1,2010-04-08T07:00:00Z,26.4345,-81.9647,0.58,1111122 
SCCF RECON,ioos:station:SCCF:16:1,2010-04-08T08:00:00Z,26.4345,-81.9647,0.63,1111122 
SCCF RECON,ioos:station:SCCF:16:1,2010-04-08T09:00:00Z,26.4345,-81.9647,0.67,1111122 
SCCF RECON,ioos:station:SCCF:16:1,2010-04-08T10:00:00Z,26.4345,-81.9647,0.68,1111122 
SCCF RECON,ioos:station:SCCF:16:1,2010-04-08T11:00:00Z,26.4345,-81.9647,0.69,1111122 
SCCF RECON,ioos:station:SCCF:16:1,2010-04-08T12:00:00Z,26.4345,-81.9647,0.72,1111122 
SCCF RECON,ioos:station:SCCF:16:1,2010-04-08T13:00:00Z,26.4345,-81.9647,0.77,1111122 
SCCF RECON,ioos:station:SCCF:16:1,2010-04-08T14:00:00Z,26.4345,-81.9647,0.87,1111122 
SCCF RECON,ioos:station:SCCF:16:1,2010-04-08T15:00:00Z,26.4345,-81.9647,0.82,1111122 
SCCF RECON,ioos:station:SCCF:16:1,2010-04-08T16:00:00Z,26.4345,-81.9647,0.61,1111122 
SCCF RECON,ioos:station:SCCF:16:1,2010-04-08T17:00:00Z,26.4345,-81.9647,0.7,1111122 
SCCF RECON,ioos:station:SCCF:16:1,2010-04-08T18:00:00Z,26.4345,-81.9647,0.72,1111122 
SCCF RECON,ioos:station:SCCF:16:1,2010-04-08T19:00:00Z,26.4345,-81.9647,0.86,1111122 
SCCF RECON,ioos:station:SCCF:16:1,2010-04-08T20:00:00Z,26.4345,-81.9647,0.97,1111122 
SCCF RECON,ioos:station:SCCF:16:1,2010-04-08T21:00:00Z,26.4345,-81.9647,1.38,1111122 
SCCF RECON,ioos:station:SCCF:16:1,2010-04-08T22:00:00Z,26.4345,-81.9647,1.25,1111122 
SCCF RECON,ioos:station:SCCF:16:1,2010-04-08T23:00:00Z,26.4345,-81.9647,1.31,1111122 
SCCF RECON,ioos:station:SCCF:16:1,2010-04-09T00:00:00Z,26.4345,-81.9647,1.59,1111122 
SCCF RECON,ioos:station:SCCF:16:1,2010-04-09T01:00:00Z,26.4345,-81.9647,1.61,1111122 
SCCF RECON,ioos:station:SCCF:16:1,2010-04-09T02:00:00Z,26.4345,-81.9647,1.36,1111122 
SCCF RECON,ioos:station:SCCF:16:1,2010-04-09T03:00:00Z,26.4345,-81.9647,1.07,1111122 
SCCF RECON,ioos:station:SCCF:16:1,2010-04-09T04:00:00Z,26.4345,-81.9647,1.13,1111122 
SCCF RECON,ioos:station:SCCF:16:1,2010-04-09T05:00:00Z,26.4345,-81.9647,1.52,1111122 
SCCF RECON,ioos:station:SCCF:16:1,2010-04-09T06:00:00Z,26.4345,-81.9647,1.22,1111122 
SCCF RECON,ioos:station:SCCF:16:1,2010-04-09T07:00:00Z,26.4345,-81.9647,1.09,1111122 
SCCF RECON,ioos:station:SCCF:16:1,2010-04-09T08:00:00Z,26.4345,-81.9647,0.89,1111122 
SCCF RECON,ioos:station:SCCF:16:1,2010-04-09T09:00:00Z,26.4345,-81.9647,0.73,1111122 
SCCF RECON,ioos:station:SCCF:16:1,2010-04-09T10:00:00Z,26.4345,-81.9647,0.7,1111122 
SCCF RECON,ioos:station:SCCF:16:1,2010-04-09T11:00:00Z,26.4345,-81.9647,0.63,1111122 
SCCF RECON,ioos:station:SCCF:16:1,2010-04-09T12:00:00Z,26.4345,-81.9647,0.53,1111122 
SCCF RECON,ioos:station:SCCF:16:1,2010-04-09T13:00:00Z,26.4345,-81.9647,0.62,1111122 
SCCF RECON,ioos:station:SCCF:16:1,2010-04-09T14:00:00Z,26.4345,-81.9647,0.84,1111122 
SCCF RECON,ioos:station:SCCF:16:1,2010-04-09T15:00:00Z,26.4345,-81.9647,1.02,1111122 
SCCF RECON,ioos:station:SCCF:16:1,2010-04-09T16:00:00Z,26.4345,-81.9647,1.23,1111122 
SCCF RECON,ioos:station:SCCF:16:1,2010-04-09T17:00:00Z,26.4345,-81.9647,1.71,1111122 
SCCF RECON,ioos:station:SCCF:16:1,2010-04-09T18:00:00Z,26.4345,-81.9647,1.13,1111122 
SCCF RECON,ioos:station:SCCF:16:1,2010-04-09T19:00:00Z,26.4345,-81.9647,0.86,1111122 
SCCF RECON,ioos:station:SCCF:16:1,2010-04-09T20:00:00Z,26.4345,-81.9647,1.0,1111122 
SCCF RECON,ioos:station:SCCF:16:1,2010-04-09T21:00:00Z,26.4345,-81.9647,0.71,1111122 
SCCF RECON,ioos:station:SCCF:16:1,2010-04-09T22:00:00Z,26.4345,-81.9647,0.72,1111122 
SCCF RECON,ioos:station:SCCF:16:1,2010-04-09T23:00:00Z,26.4345,-81.9647,0.67,1111122 
SCCF RECON,ioos:station:SCCF:16:1,2010-04-10T00:00:00Z,26.4345,-81.9647,0.79,1111122 
SCCF RECON,ioos:station:SCCF:16:1,2010-04-10T01:00:00Z,26.4345,-81.9647,1.07,1111122 
SCCF RECON,ioos:station:SCCF:16:1,2010-04-10T02:00:00Z,26.4345,-81.9647,0.96,1111122 
SCCF RECON,ioos:station:SCCF:16:1,2010-04-10T03:00:00Z,26.4345,-81.9647,0.93,1111122 
SCCF RECON,ioos:station:SCCF:16:1,2010-04-10T04:00:00Z,26.4345,-81.9647,0.88,1111122 
SCCF RECON,ioos:station:SCCF:16:1,2010-04-10T05:00:00Z,26.4345,-81.9647,0.68,1111122 
SCCF RECON,ioos:station:SCCF:16:1,2010-04-10T06:00:00Z,26.4345,-81.9647,0.7,1111122 
SCCF RECON,ioos:station:SCCF:16:1,2010-04-10T07:00:00Z,26.4345,-81.9647,0.62,1111122 
SCCF RECON,ioos:station:SCCF:16:1,2010-04-10T08:00:00Z,26.4345,-81.9647,0.71,1111122 
SCCF RECON,ioos:station:SCCF:16:1,2010-04-10T09:00:00Z,26.4345,-81.9647,0.73,1111122 
SCCF RECON,ioos:station:SCCF:16:1,2010-04-10T10:00:00Z,26.4345,-81.9647,0.73,1111122 
SCCF RECON,ioos:station:SCCF:16:1,2010-04-10T11:00:00Z,26.4345,-81.9647,0.79,1111122 
SCCF RECON,ioos:station:SCCF:16:1,2010-04-10T12:00:00Z,26.4345,-81.9647,0.7,1111122 
SCCF RECON,ioos:station:SCCF:16:1,2010-04-10T13:00:00Z,26.4345,-81.9647,0.78,1111122 
SCCF RECON,ioos:station:SCCF:16:1,2010-04-10T14:00:00Z,26.4345,-81.9647,0.86,1111122 
SCCF RECON,ioos:station:SCCF:16:1,2010-04-10T15:00:00Z,26.4345,-81.9647,0.86,1111122 
SCCF RECON,ioos:station:SCCF:16:1,2010-04-10T16:00:00Z,26.4345,-81.9647,1.07,1111122 
SCCF RECON,ioos:station:SCCF:16:1,2010-04-10T17:00:00Z,26.4345,-81.9647,1.27,1111122 
SCCF RECON,ioos:station:SCCF:16:1,2010-04-10T18:00:00Z,26.4345,-81.9647,1.49,1111122 
SCCF RECON,ioos:station:SCCF:16:1,2010-04-10T19:00:00Z,26.4345,-81.9647,1.54,1111122 
SCCF RECON,ioos:station:SCCF:16:1,2010-04-10T20:00:00Z,26.4345,-81.9647,1.93,1111122 
SCCF RECON,ioos:station:SCCF:16:1,2010-04-10T21:00:00Z,26.4345,-81.9647,1.74,1111122 
SCCF RECON,ioos:station:SCCF:16:1,2010-04-10T22:00:00Z,26.4345,-81.9647,1.38,1111122 
SCCF RECON,ioos:station:SCCF:16:1,2010-04-10T23:00:00Z,26.4345,-81.9647,1.3,1111122 
SCCF RECON,ioos:station:SCCF:16:1,2010-04-11T00:00:00Z,26.4345,-81.9647,1.29,1111122 
SCCF RECON,ioos:station:SCCF:16:1,2010-04-11T01:00:00Z,26.4345,-81.9647,1.45,1111122 
SCCF RECON,ioos:station:SCCF:16:1,2010-04-11T02:00:00Z,26.4345,-81.9647,1.54,1111122 
SCCF RECON,ioos:station:SCCF:16:1,2010-04-11T03:00:00Z,26.4345,-81.9647,1.3,1111122 
SCCF RECON,ioos:station:SCCF:16:1,2010-04-11T04:00:00Z,26.4345,-81.9647,0.92,1111122 
SCCF RECON,ioos:station:SCCF:16:1,2010-04-11T05:00:00Z,26.4345,-81.9647,0.78,1111122 
SCCF RECON,ioos:station:SCCF:16:1,2010-04-11T06:00:00Z,26.4345,-81.9647,0.7,1111122 
SCCF RECON,ioos:station:SCCF:16:1,2010-04-11T07:00:00Z,26.4345,-81.9647,0.65,1111122 
SCCF RECON,ioos:station:SCCF:16:1,2010-04-11T08:00:00Z,26.4345,-81.9647,0.74,1111122 
SCCF RECON,ioos:station:SCCF:16:1,2010-04-11T09:00:00Z,26.4345,-81.9647,0.77,1111122 
SCCF RECON,ioos:station:SCCF:16:1,2010-04-11T10:00:00Z,26.4345,-81.9647,0.83,1111122 
SCCF RECON,ioos:station:SCCF:16:1,2010-04-11T11:00:00Z,26.4345,-81.9647,0.82,1111122 
SCCF RECON,ioos:station:SCCF:16:1,2010-04-11T12:00:00Z,26.4345,-81.9647,0.72,1111122 
SCCF RECON,ioos:station:SCCF:16:1,2010-04-11T13:00:00Z,26.4345,-81.9647,0.71,1111122 
SCCF RECON,ioos:station:SCCF:16:1,2010-04-11T14:00:00Z,26.4345,-81.9647,0.68,1111122 
SCCF RECON,ioos:station:SCCF:16:1,2010-04-11T15:00:00Z,26.4345,-81.9647,0.68,1111122 
SCCF RECON,ioos:station:SCCF:16:1,2010-04-11T16:00:00Z,26.4345,-81.9647,0.83,1111122 
SCCF RECON,ioos:station:SCCF:16:1,2010-04-11T17:00:00Z,26.4345,-81.9647,0.76,1111122 
SCCF RECON,ioos:station:SCCF:16:1,2010-04-11T18:00:00Z,26.4345,-81.9647,0.83,1111122 
SCCF RECON,ioos:station:SCCF:16:1,2010-04-11T19:00:00Z,26.4345,-81.9647,0.96,1111122 
SCCF RECON,ioos:station:SCCF:16:1,2010-04-11T20:00:00Z,26.4345,-81.9647,0.91,1111122 
SCCF RECON,ioos:station:SCCF:16:1,2010-04-11T21:00:00Z,26.4345,-81.9647,0.93,1111122 
SCCF RECON,ioos:station:SCCF:16:1,2010-04-11T22:00:00Z,26.4345,-81.9647,1.05,1111122 
SCCF RECON,ioos:station:SCCF:16:1,2010-04-11T23:00:00Z,26.4345,-81.9647,1.15,1111122 
SCCF RECON,ioos:station:SCCF:16:1,2010-04-12T00:00:00Z,26.4345,-81.9647,1.06,1111122 
SCCF RECON,ioos:station:SCCF:16:1,2010-04-12T01:00:00Z,26.4345,-81.9647,1.27,1111122 
SCCF RECON,ioos:station:SCCF:16:1,2010-04-12T02:00:00Z,26.4345,-81.9647,1.16,1111122 
SCCF RECON,ioos:station:SCCF:16:1,2010-04-12T03:00:00Z,26.4345,-81.9647,1.0,1111122 
SCCF RECON,ioos:station:SCCF:16:1,2010-04-12T04:00:00Z,26.4345,-81.9647,0.87,1111122 
SCCF RECON,ioos:station:SCCF:16:1,2010-04-12T05:00:00Z,26.4345,-81.9647,0.85,1111122 
SCCF RECON,ioos:station:SCCF:16:1,2010-04-12T06:00:00Z,26.4345,-81.9647,0.86,1111122 
SCCF RECON,ioos:station:SCCF:16:1,2010-04-12T07:00:00Z,26.4345,-81.9647,0.77,1111122 
SCCF RECON,ioos:station:SCCF:16:1,2010-04-12T08:00:00Z,26.4345,-81.9647,0.69,1111122 
SCCF RECON,ioos:station:SCCF:16:1,2010-04-12T09:00:00Z,26.4345,-81.9647,0.73,1111122 
SCCF RECON,ioos:station:SCCF:16:1,2010-04-12T10:00:00Z,26.4345,-81.9647,0.72,1111122 
SCCF RECON,ioos:station:SCCF:16:1,2010-04-12T11:00:00Z,26.4345,-81.9647,0.71,1111122 
SCCF RECON,ioos:station:SCCF:16:1,2010-04-12T12:00:00Z,26.4345,-81.9647,0.68,1111122 
SCCF RECON,ioos:station:SCCF:16:1,2010-04-12T13:00:00Z,26.4345,-81.9647,0.66,1111122 
SCCF RECON,ioos:station:SCCF:16:1,2010-04-12T14:00:00Z,26.4345,-81.9647,0.76,1111122 
SCCF RECON,ioos:station:SCCF:16:1,2010-04-12T15:00:00Z,26.4345,-81.9647,0.64,1111122 
SCCF RECON,ioos:station:SCCF:16:1,2010-04-12T16:00:00Z,26.4345,-81.9647,0.65,1111122 
SCCF RECON,ioos:station:SCCF:16:1,2010-04-12T17:00:00Z,26.4345,-81.9647,0.68,1111122 
SCCF RECON,ioos:station:SCCF:16:1,2010-04-12T18:00:00Z,26.4345,-81.9647,0.72,1111122 
SCCF RECON,ioos:station:SCCF:16:1,2010-04-12T19:00:00Z,26.4345,-81.9647,0.86,1111122 
SCCF RECON,ioos:station:SCCF:16:1,2010-04-12T20:00:00Z,26.4345,-81.9647,0.8,1111122 
SCCF RECON,ioos:station:SCCF:16:1,2010-04-12T21:00:00Z,26.4345,-81.9647,0.97,1111122 
SCCF RECON,ioos:station:SCCF:16:1,2010-04-12T22:00:00Z,26.4345,-81.9647,1.13,1111122 
SCCF RECON,ioos:station:SCCF:16:1,2010-04-12T23:00:00Z,26.4345,-81.9647,0.95,1111122 
SCCF RECON,ioos:station:SCCF:16:1,2010-04-13T00:00:00Z,26.4345,-81.9647,1.15,1111122 
SCCF RECON,ioos:station:SCCF:16:1,2010-04-13T01:00:00Z,26.4345,-81.9647,1.16,1111122 
SCCF RECON,ioos:station:SCCF:16:1,2010-04-13T02:00:00Z,26.4345,-81.9647,1.25,1111122 
SCCF RECON,ioos:station:SCCF:16:1,2010-04-13T03:00:00Z,26.4345,-81.9647,1.26,1111122 
SCCF RECON,ioos:station:SCCF:16:1,2010-04-13T04:00:00Z,26.4345,-81.9647,1.31,1111122 
SCCF RECON,ioos:station:SCCF:16:1,2010-04-13T05:00:00Z,26.4345,-81.9647,0.9,1111122 
SCCF RECON,ioos:station:SCCF:16:1,2010-04-13T06:00:00Z,26.4345,-81.9647,0.76,1111122 
SCCF RECON,ioos:station:SCCF:16:1,2010-04-13T07:00:00Z,26.4345,-81.9647,0.71,1111122 
SCCF RECON,ioos:station:SCCF:16:1,2010-04-13T08:00:00Z,26.4345,-81.9647,0.62,1111122 
SCCF RECON,ioos:station:SCCF:16:1,2010-04-13T09:00:00Z,26.4345,-81.9647,0.62,1111122 
SCCF RECON,ioos:station:SCCF:16:1,2010-04-13T10:00:00Z,26.4345,-81.9647,0.8,1111122 
SCCF RECON,ioos:station:SCCF:16:1,2010-04-13T11:00:00Z,26.4345,-81.9647,0.78,1111122 
SCCF RECON,ioos:station:SCCF:16:1,2010-04-13T12:00:00Z,26.4345,-81.9647,0.66,1111122 
SCCF RECON,ioos:station:SCCF:16:1,2010-04-13T13:00:00Z,26.4345,-81.9647,0.63,1111122 
SCCF RECON,ioos:station:SCCF:16:1,2010-04-13T14:00:00Z,26.4345,-81.9647,0.68,1111122 
SCCF RECON,ioos:station:SCCF:16:1,2010-04-13T15:00:00Z,26.4345,-81.9647,0.78,1111122 
SCCF RECON,ioos:station:SCCF:16:1,2010-04-13T16:00:00Z,26.4345,-81.9647,0.66,1111122 
SCCF RECON,ioos:station:SCCF:16:1,2010-04-13T17:00:00Z,26.4345,-81.9647,0.48,1111122 
SCCF RECON,ioos:station:SCCF:16:1,2010-04-13T18:00:00Z,26.4345,-81.9647,0.45,1111122 
SCCF RECON,ioos:station:SCCF:16:1,2010-04-13T19:00:00Z,26.4345,-81.9647,1.01,1111122 
SCCF RECON,ioos:station:SCCF:16:1,2010-04-13T20:00:00Z,26.4345,-81.9647,0.68,1111122 
SCCF RECON,ioos:station:SCCF:16:1,2010-04-13T21:00:00Z,26.4345,-81.9647,0.78,1111122 
SCCF RECON,ioos:station:SCCF:16:1,2010-04-13T22:00:00Z,26.4345,-81.9647,1.42,1111122 
SCCF RECON,ioos:station:SCCF:16:1,2010-04-13T23:00:00Z,26.4345,-81.9647,1.2,1111122 
SCCF RECON,ioos:station:SCCF:16:1,2010-04-14T00:00:00Z,26.4345,-81.9647,1.5,1111122 
SCCF RECON,ioos:station:SCCF:16:1,2010-04-14T01:00:00Z,26.4345,-81.9647,1.65,1111122 
SCCF RECON,ioos:station:SCCF:16:1,2010-04-14T02:00:00Z,26.4345,-81.9647,1.61,1111122 
SCCF RECON,ioos:station:SCCF:16:1,2010-04-14T03:00:00Z,26.4345,-81.9647,1.77,1111122 
SCCF RECON,ioos:station:SCCF:16:1,2010-04-14T04:00:00Z,26.4345,-81.9647,1.47,1111122 
SCCF RECON,ioos:station:SCCF:16:1,2010-04-14T05:00:00Z,26.4345,-81.9647,0.83,1111122 
SCCF RECON,ioos:station:SCCF:16:1,2010-04-14T06:00:00Z,26.4345,-81.9647,0.88,1111122 
SCCF RECON,ioos:station:SCCF:16:1,2010-04-14T07:00:00Z,26.4345,-81.9647,0.86,1111122 
SCCF RECON,ioos:station:SCCF:16:1,2010-04-14T08:00:00Z,26.4345,-81.9647,0.77,1111122 
SCCF RECON,ioos:station:SCCF:16:1,2010-04-14T09:00:00Z,26.4345,-81.9647,0.69,1111122 
SCCF RECON,ioos:station:SCCF:16:1,2010-04-14T10:00:00Z,26.4345,-81.9647,0.59,1111122 
SCCF RECON,ioos:station:SCCF:16:1,2010-04-14T11:00:00Z,26.4345,-81.9647,0.7,1111122 
SCCF RECON,ioos:station:SCCF:16:1,2010-04-14T12:00:00Z,26.4345,-81.9647,1.18,1111122 
SCCF RECON,ioos:station:SCCF:16:1,2010-04-14T13:00:00Z,26.4345,-81.9647,0.78,1111122 
SCCF RECON,ioos:station:SCCF:16:1,2010-04-14T14:00:00Z,26.4345,-81.9647,1.0,1111122 
SCCF RECON,ioos:station:SCCF:16:1,2010-04-14T15:00:00Z,26.4345,-81.9647,0.72,1111122 
SCCF RECON,ioos:station:SCCF:16:1,2010-04-14T16:00:00Z,26.4345,-81.9647,0.55,1111122 
SCCF RECON,ioos:station:SCCF:16:1,2010-04-14T17:00:00Z,26.4345,-81.9647,0.57,1111122 
SCCF RECON,ioos:station:SCCF:16:1,2010-04-14T18:00:00Z,26.4345,-81.9647,0.59,1111122 
SCCF RECON,ioos:station:SCCF:16:1,2010-04-14T19:00:00Z,26.4345,-81.9647,0.89,1111122 
SCCF RECON,ioos:station:SCCF:16:1,2010-04-14T20:00:00Z,26.4345,-81.9647,0.88,1111122 
SCCF RECON,ioos:station:SCCF:16:1,2010-04-14T21:00:00Z,26.4345,-81.9647,0.9,1111122 
SCCF RECON,ioos:station:SCCF:16:1,2010-04-14T22:00:00Z,26.4345,-81.9647,1.3,1111122 
SCCF RECON,ioos:station:SCCF:16:1,2010-04-14T23:00:00Z,26.4345,-81.9647,1.93,1111122 
SCCF RECON,ioos:station:SCCF:16:1,2010-04-15T00:00:00Z,26.4345,-81.9647,1.94,1111122 
SCCF RECON,ioos:station:SCCF:16:1,2010-04-15T01:00:00Z,26.4345,-81.9647,1.97,1111122 
SCCF RECON,ioos:station:SCCF:16:1,2010-04-15T02:00:00Z,26.4345,-81.9647,1.93,1111122 
SCCF RECON,ioos:station:SCCF:16:1,2010-04-15T03:00:00Z,26.4345,-81.9647,2.55,1111122 
SCCF RECON,ioos:station:SCCF:16:1,2010-04-15T04:00:00Z,26.4345,-81.9647,2.35,1111122 
SCCF RECON,ioos:station:SCCF:16:1,2010-04-15T05:00:00Z,26.4345,-81.9647,1.34,1111122 
SCCF RECON,ioos:station:SCCF:16:1,2010-04-15T06:00:00Z,26.4345,-81.9647,1.47,1111122 
SCCF RECON,ioos:station:SCCF:16:1,2010-04-15T07:00:00Z,26.4345,-81.9647,1.06,1111122 
SCCF RECON,ioos:station:SCCF:16:1,2010-04-15T08:00:00Z,26.4345,-81.9647,0.9,1111122 
SCCF RECON,ioos:station:SCCF:16:1,2010-04-15T09:00:00Z,26.4345,-81.9647,0.77,1111122 
SCCF RECON,ioos:station:SCCF:16:1,2010-04-15T10:00:00Z,26.4345,-81.9647,0.67,1111122 
SCCF RECON,ioos:station:SCCF:16:1,2010-04-15T11:00:00Z,26.4345,-81.9647,0.67,1111122 
SCCF RECON,ioos:station:SCCF:16:1,2010-04-15T12:00:00Z,26.4345,-81.9647,0.71,1111122 
SCCF RECON,ioos:station:SCCF:16:1,2010-04-15T13:00:00Z,26.4345,-81.9647,0.65,1111122 
SCCF RECON,ioos:station:SCCF:16:1,2010-04-15T14:00:00Z,26.4345,-81.9647,0.57,1111122 
SCCF RECON,ioos:station:SCCF:16:1,2010-04-15T15:00:00Z,26.4345,-81.9647,0.56,1111122 
SCCF RECON,ioos:station:SCCF:16:1,2010-04-15T16:00:00Z,26.4345,-81.9647,0.49,1111122 
SCCF RECON,ioos:station:SCCF:16:1,2010-04-15T17:00:00Z,26.4345,-81.9647,0.39,1111122 
SCCF RECON,ioos:station:SCCF:16:1,2010-04-15T18:00:00Z,26.4345,-81.9647,0.37,1111122 
SCCF RECON,ioos:station:SCCF:16:1,2010-04-15T19:00:00Z,26.4345,-81.9647,0.42,1111122 
SCCF RECON,ioos:station:SCCF:16:1,2010-04-15T20:00:00Z,26.4345,-81.9647,0.55,1111122 
SCCF RECON,ioos:station:SCCF:16:1,2010-04-15T21:00:00Z,26.4345,-81.9647,0.65,1111122 
SCCF RECON,ioos:station:SCCF:16:1,2010-04-15T22:00:00Z,26.4345,-81.9647,1.07,1111122 
SCCF RECON,ioos:station:SCCF:16:1,2010-04-15T23:00:00Z,26.4345,-81.9647,1.31,1111122 
SCCF RECON,ioos:station:SCCF:16:1,2010-04-16T00:00:00Z,26.4345,-81.9647,2.16,1111122 
SCCF RECON,ioos:station:SCCF:16:1,2010-04-16T01:00:00Z,26.4345,-81.9647,1.34,1111122 
SCCF RECON,ioos:station:SCCF:16:1,2010-04-16T02:00:00Z,26.4345,-81.9647,1.36,1111122 
SCCF RECON,ioos:station:SCCF:16:1,2010-04-16T03:00:00Z,26.4345,-81.9647,1.37,1111122 
SCCF RECON,ioos:station:SCCF:16:1,2010-04-16T04:00:00Z,26.4345,-81.9647,1.62,1111122 
SCCF RECON,ioos:station:SCCF:16:1,2010-04-16T05:00:00Z,26.4345,-81.9647,1.55,1111122 
SCCF RECON,ioos:station:SCCF:16:1,2010-04-16T06:00:00Z,26.4345,-81.9647,1.57,1111122 
SCCF RECON,ioos:station:SCCF:16:1,2010-04-16T07:00:00Z,26.4345,-81.9647,1.61,1111122 
SCCF RECON,ioos:station:SCCF:16:1,2010-04-16T08:00:00Z,26.4345,-81.9647,1.11,1111122 
SCCF RECON,ioos:station:SCCF:16:1,2010-04-16T09:00:00Z,26.4345,-81.9647,0.76,1111122 
SCCF RECON,ioos:station:SCCF:16:1,2010-04-16T10:00:00Z,26.4345,-81.9647,0.66,1111122 
SCCF RECON,ioos:station:SCCF:16:1,2010-04-16T11:00:00Z,26.4345,-81.9647,0.66,1111122 
SCCF RECON,ioos:station:SCCF:16:1,2010-04-16T12:00:00Z,26.4345,-81.9647,0.93,1111122 
SCCF RECON,ioos:station:SCCF:16:1,2010-04-16T13:00:00Z,26.4345,-81.9647,0.95,1111122 
SCCF RECON,ioos:station:SCCF:16:1,2010-04-16T14:00:00Z,26.4345,-81.9647,0.88,1111122 
SCCF RECON,ioos:station:SCCF:16:1,2010-04-16T15:00:00Z,26.4345,-81.9647,0.89,1111122 
SCCF RECON,ioos:station:SCCF:16:1,2010-04-16T16:00:00Z,26.4345,-81.9647,0.4,1111122 
SCCF RECON,ioos:station:SCCF:16:1,2010-04-16T17:00:00Z,26.4345,-81.9647,0.82,1111122 
SCCF RECON,ioos:station:SCCF:16:1,2010-04-16T18:00:00Z,26.4345,-81.9647,0.35,1111122 
SCCF RECON,ioos:station:SCCF:16:1,2010-04-16T19:00:00Z,26.4345,-81.9647,0.4,1111122 
SCCF RECON,ioos:station:SCCF:16:1,2010-04-16T20:00:00Z,26.4345,-81.9647,0.47,1111122 
SCCF RECON,ioos:station:SCCF:16:1,2010-04-16T21:00:00Z,26.4345,-81.9647,0.53,1111122 
SCCF RECON,ioos:station:SCCF:16:1,2010-04-16T22:00:00Z,26.4345,-81.9647,0.67,1111122 
SCCF RECON,ioos:station:SCCF:16:1,2010-04-16T23:00:00Z,26.4345,-81.9647,1.87,1111122 
SCCF RECON,ioos:station:SCCF:16:1,2010-04-17T00:00:00Z,26.4345,-81.9647,1.22,1111122 
SCCF RECON,ioos:station:SCCF:16:1,2010-04-17T01:00:00Z,26.4345,-81.9647,1.05,1111122 
SCCF RECON,ioos:station:SCCF:16:1,2010-04-17T02:00:00Z,26.4345,-81.9647,1.05,1111122 
SCCF RECON,ioos:station:SCCF:16:1,2010-04-17T03:00:00Z,26.4345,-81.9647,1.12,1111122 
SCCF RECON,ioos:station:SCCF:16:1,2010-04-17T04:00:00Z,26.4345,-81.9647,1.06,1111122 
SCCF RECON,ioos:station:SCCF:16:1,2010-04-17T05:00:00Z,26.4345,-81.9647,1.02,1111122 
SCCF RECON,ioos:station:SCCF:16:1,2010-04-17T06:00:00Z,26.4345,-81.9647,1.16,1111122 
SCCF RECON,ioos:station:SCCF:16:1,2010-04-17T07:00:00Z,26.4345,-81.9647,1.16,1111122 
SCCF RECON,ioos:station:SCCF:16:1,2010-04-17T08:00:00Z,26.4345,-81.9647,1.34,1111122 
SCCF RECON,ioos:station:SCCF:16:1,2010-04-17T09:00:00Z,26.4345,-81.9647,0.92,1111122 
SCCF RECON,ioos:station:SCCF:16:1,2010-04-17T10:00:00Z,26.4345,-81.9647,0.64,1111122 
SCCF RECON,ioos:station:SCCF:16:1,2010-04-17T11:00:00Z,26.4345,-81.9647,0.64,1111122 
SCCF RECON,ioos:station:SCCF:16:1,2010-04-17T12:00:00Z,26.4345,-81.9647,0.47,1111122 
SCCF RECON,ioos:station:SCCF:16:1,2010-04-17T13:00:00Z,26.4345,-81.9647,0.45,1111122 
SCCF RECON,ioos:station:SCCF:16:1,2010-04-17T14:00:00Z,26.4345,-81.9647,0.39,1111122 
SCCF RECON,ioos:station:SCCF:16:1,2010-04-17T15:00:00Z,26.4345,-81.9647,0.42,1111122 
SCCF RECON,ioos:station:SCCF:16:1,2010-04-17T16:00:00Z,26.4345,-81.9647,0.38,1111122 
SCCF RECON,ioos:station:SCCF:16:1,2010-04-17T17:00:00Z,26.4345,-81.9647,0.43,1111122 
SCCF RECON,ioos:station:SCCF:16:1,2010-04-17T18:00:00Z,26.4345,-81.9647,0.54,1111122 
SCCF RECON,ioos:station:SCCF:16:1,2010-04-17T19:00:00Z,26.4345,-81.9647,0.6,1111122 
SCCF RECON,ioos:station:SCCF:16:1,2010-04-17T20:00:00Z,26.4345,-81.9647,0.71,1111122 
SCCF RECON,ioos:station:SCCF:16:1,2010-04-17T21:00:00Z,26.4345,-81.9647,0.94,1111122 
SCCF RECON,ioos:station:SCCF:16:1,2010-04-17T22:00:00Z,26.4345,-81.9647,0.77,1111122 
SCCF RECON,ioos:station:SCCF:16:1,2010-04-17T23:00:00Z,26.4345,-81.9647,0.54,1111122 
SCCF RECON,ioos:station:SCCF:16:1,2010-04-18T00:00:00Z,26.4345,-81.9647,1.0,1111122 
SCCF RECON,ioos:station:SCCF:16:1,2010-04-18T01:00:00Z,26.4345,-81.9647,1.01,1111122 
SCCF RECON,ioos:station:SCCF:16:1,2010-04-18T02:00:00Z,26.4345,-81.9647,1.02,1111122 
SCCF RECON,ioos:station:SCCF:16:1,2010-04-18T03:00:00Z,26.4345,-81.9647,0.97,1111122 
SCCF RECON,ioos:station:SCCF:16:1,2010-04-18T04:00:00Z,26.4345,-81.9647,0.95,1111122 
SCCF RECON,ioos:station:SCCF:16:1,2010-04-18T05:00:00Z,26.4345,-81.9647,0.85,1111122 
SCCF RECON,ioos:station:SCCF:16:1,2010-04-18T06:00:00Z,26.4345,-81.9647,0.65,1111122 